Weather History for Curitiba, Brazil

Change the Weather History Date:

Sunday, December 8, 2013

  Actual Average Record
Temperature  
Mean Temperature 68 °F -  
Max Temperature 75 °F 77 °F 86 °F (2001)
Min Temperature 60 °F 61 °F 51 °F (2000)
Cooling Degree Days 2    
Growing Degree Days 18 (Base 50)    
Moisture  
Dew Point 63 °F    
Average Humidity 86    
Maximum Humidity 100    
Minimum Humidity 62    
Precipitation  
Precipitation 0.00 in - - ()
Sea Level Pressure  
Sea Level Pressure 30.05 in    
Wind  
Wind Speed 6 mph ()    
Max Wind Speed 12 mph    
Max Gust Speed -    
Visibility 7.0 miles    
Events      
Averages and records for this station are not official NWS values.
T = Trace of Precipitation, MM = Missing Value Source: Averaged Metar Reports

Daily Weather History Graph

Daily Weather History Graph

Search for Another Location

Airport:

Trip Planner

Search our weather history database for the weather conditions in past years. The results will help you decide how hot, cold, wet, or windy it might be!

Date:

Astronomy

Dec. 08, 2013 Rise Set
Actual Time 6:18 AM BRST 7:59 PM BRST
Civil Twilight 5:52 AM BRST 8:25 PM BRST
Nautical Twilight 5:21 AM BRST 8:56 PM BRST
Astronomical Twilight 4:49 AM BRST 9:28 PM BRST
Moon 12:10 PM BRST (12/8) 12:11 AM BRST (12/8)
Length of Visible Light 14h 32m
Length of Day
13h 40m
Waxing Crescent, 38% of the Moon is Illuminated
Dec 8
Waxing Crescent
Dec 9
First Quarter
Dec 17
Full
Dec 25
Last Quarter
Jan 1
New

Hourly Weather History & Observations

Time (BRST) Temp. Dew Point Humidity Pressure Visibility Wind Dir Wind Speed Gust Speed Precip Events Conditions
12:00 AM 60.8 °F 60.8 °F 100% 30.06 in 5.0 mi ESE 8.1 mph - N/A   Mostly Cloudy
1:00 AM 62.6 °F 62.6 °F 100% 30.06 in 6.2 mi East 3.5 mph - N/A   Mostly Cloudy
2:00 AM 62.6 °F 62.6 °F 100% 30.04 in 6.2 mi East 6.9 mph - N/A   Overcast
3:00 AM 62.6 °F 62.6 °F 100% 30.04 in 6.2 mi East 4.6 mph - N/A   Overcast
4:00 AM 62 °F 61 °F 96%  in 12 mi NNE 5.8 mph - -   Overcast
4:00 AM 62.6 °F 60.8 °F 94% 30.01 in 6.2 mi NNE 5.8 mph - N/A   Mostly Cloudy
5:00 AM 62.6 °F 60.8 °F 94% 30.04 in 6.2 mi East 2.3 mph - N/A   Mostly Cloudy
6:00 AM 62.6 °F 62.6 °F 100% 30.04 in 6.2 mi NNE 3.5 mph - N/A   Mostly Cloudy
6:20 AM 62.6 °F 60.8 °F 94% 30.04 in 6.2 mi NNE 3.5 mph - N/A   Mostly Cloudy
7:00 AM 62.6 °F 62.6 °F 100% 30.06 in 6.2 mi North 5.8 mph - N/A   Mostly Cloudy
8:00 AM 66.2 °F 62.6 °F 88% 30.06 in 6.2 mi ENE 5.8 mph - N/A   Mostly Cloudy
9:00 AM 68.0 °F 64.4 °F 88% 30.09 in 6.2 mi ENE 10.4 mph - N/A   Mostly Cloudy
10:00 AM 71 °F 62 °F 64%  in 12 mi ENE 11.5 mph - -  
10:00 AM 71.6 °F 60.8 °F 69% 30.09 in 6.2 mi ENE 11.5 mph - N/A   Scattered Clouds
11:00 AM 71.6 °F 60.8 °F 69% 30.09 in 6.2 mi East 9.2 mph - N/A   Mostly Cloudy
12:00 PM 73.4 °F 60.8 °F 65% 30.09 in 6.2 mi NE 9.2 mph - N/A   Mostly Cloudy
1:00 PM 73.4 °F 64.4 °F 73% 30.06 in 6.2 mi East 9.2 mph - N/A   Mostly Cloudy
2:00 PM 73.4 °F 62.6 °F 69% 30.06 in 6.2 mi ENE 9.2 mph - N/A   Mostly Cloudy
3:00 PM 73.4 °F 64.4 °F 73% 30.06 in 6.2 mi East 8.1 mph - N/A   Mostly Cloudy
4:00 PM 75 °F 65 °F 62%  in 12 mi East 5.8 mph - -   Mostly Cloudy
4:00 PM 75.2 °F 64.4 °F 69% 30.04 in 6.2 mi East 5.8 mph - N/A   Mostly Cloudy
5:00 PM 73.4 °F 66.2 °F 78% 30.01 in 6.2 mi ESE 8.1 mph - N/A   Mostly Cloudy
6:00 PM 71.6 °F 66.2 °F 83% 30.01 in 6.2 mi East 9.2 mph - N/A   Mostly Cloudy
7:00 PM 68.0 °F 66.2 °F 94% 30.01 in 6.2 mi ESE 9.2 mph - N/A   Mostly Cloudy
8:00 PM 66.2 °F 64.4 °F 94% 30.01 in 6.2 mi ESE 5.8 mph - N/A   Mostly Cloudy
9:00 PM 66.2 °F 64.4 °F 94% 30.04 in 6.2 mi East 5.8 mph - N/A   Mostly Cloudy
10:00 PM 66 °F 65 °F 97%  in 12 mi East 5.8 mph - -   Mostly Cloudy
10:00 PM 66.2 °F 66.2 °F 100% 30.04 in 6.2 mi East 5.8 mph - N/A   Mostly Cloudy
11:00 PM 66.2 °F 64.4 °F 94% 30.04 in 6.2 mi ESE 6.9 mph - N/A   Mostly Cloudy